Time,TemperatureF,DewpointF,PressureIn,WindDirection,WindDirectionDegrees,WindSpeedMPH,WindSpeedGustMPH,Humidity,HourlyPrecipIn,Conditions,Clouds,dailyrainin,SolarRadiationWatts/m^2,SoftwareType,DateUTC
2013-09-13 00:04:00,66.0,64.0,-100.00,NNE,15,5.0,11.0,94,0.00,,,0.01,0.000000,,2013-09-13 04:04:00,
2013-09-13 00:44:00,66.0,65.0,-100.00,North,358,3.0,8.0,98,0.00,,,0.01,0.000000,,2013-09-13 04:44:00,
2013-09-13 00:54:00,66.0,65.0,-100.00,North,358,3.0,8.0,98,0.00,,,0.01,0.000000,,2013-09-13 04:54:00,
2013-09-13 01:03:00,66.0,65.0,-100.00,North,358,3.0,8.0,98,0.00,,,0.01,0.000000,,2013-09-13 05:03:00,
2013-09-13 01:43:00,65.0,64.0,-100.00,NNE,28,3.0,10.0,97,0.00,,,0.01,0.000000,,2013-09-13 05:43:00,
2013-09-13 01:53:00,65.0,64.0,-100.00,NNE,28,3.0,10.0,97,0.00,,,0.01,0.000000,,2013-09-13 05:53:00,
2013-09-13 02:02:00,65.0,64.0,-100.00,NNE,28,3.0,10.0,97,0.00,,,0.01,0.000000,,2013-09-13 06:02:00,
2013-09-13 02:42:00,65.0,64.0,-100.00,North,7,5.0,13.0,96,0.00,,,0.01,0.000000,,2013-09-13 06:42:00,
2013-09-13 02:52:00,65.0,64.0,-100.00,North,7,5.0,13.0,96,0.00,,,0.01,0.000000,,2013-09-13 06:52:00,
2013-09-13 03:02:00,65.0,64.0,-100.00,North,7,5.0,13.0,96,0.00,,,0.01,0.000000,,2013-09-13 07:02:00,
2013-09-13 03:43:00,65.0,64.0,-100.00,North,359,4.0,13.0,96,0.00,,,0.01,0.000000,,2013-09-13 07:43:00,
2013-09-13 03:52:00,65.0,64.0,-100.00,North,359,4.0,13.0,96,0.00,,,0.01,0.000000,,2013-09-13 07:52:00,
2013-09-13 04:02:00,65.0,64.0,-100.00,North,359,4.0,13.0,96,0.00,,,0.01,0.000000,,2013-09-13 08:02:00,
2013-09-13 04:42:00,65.0,64.0,-100.00,North,355,5.0,11.0,96,0.00,,,0.01,0.000000,,2013-09-13 08:42:00,
2013-09-13 04:52:00,65.0,64.0,-100.00,North,355,5.0,11.0,96,0.00,,,0.01,0.000000,,2013-09-13 08:52:00,
2013-09-13 05:02:00,65.0,64.0,-100.00,North,355,5.0,11.0,96,0.00,,,0.01,0.000000,,2013-09-13 09:02:00,
2013-09-13 05:43:00,64.0,63.0,-100.00,North,3,5.0,11.0,95,0.00,,,0.01,0.000000,,2013-09-13 09:43:00,
2013-09-13 05:54:00,64.0,63.0,-100.00,North,3,5.0,11.0,95,0.00,,,0.01,0.000000,,2013-09-13 09:54:00,
2013-09-13 06:03:00,64.0,63.0,-100.00,North,3,5.0,11.0,95,0.00,,,0.01,0.000000,,2013-09-13 10:03:00,
2013-09-13 06:42:00,63.0,61.0,-100.00,North,8,6.0,14.0,94,0.00,,,0.01,0.000000,,2013-09-13 10:42:00,
2013-09-13 06:53:00,63.0,61.0,-100.00,North,8,6.0,14.0,94,0.00,,,0.01,0.000000,,2013-09-13 10:53:00,
2013-09-13 07:03:00,63.0,61.0,-100.00,North,8,6.0,14.0,94,0.00,,,0.01,0.000000,,2013-09-13 11:03:00,
2013-09-13 07:43:00,62.0,61.0,-100.00,North,357,6.0,13.0,96,0.00,,,0.01,0.000000,,2013-09-13 11:43:00,
2013-09-13 07:52:00,62.0,61.0,-100.00,North,357,6.0,13.0,96,0.00,,,0.01,0.000000,,2013-09-13 11:52:00,
2013-09-13 08:02:00,62.0,61.0,-100.00,North,357,6.0,13.0,96,0.00,,,0.01,0.000000,,2013-09-13 12:02:00,
2013-09-13 08:42:00,61.0,60.0,-100.00,North,351,6.0,13.0,95,0.00,,,0.01,13.000000,,2013-09-13 12:42:00,
2013-09-13 08:52:00,61.0,60.0,-100.00,North,351,6.0,13.0,95,0.00,,,0.01,13.000000,,2013-09-13 12:52:00,
2013-09-13 09:02:00,61.0,60.0,-100.00,North,351,6.0,13.0,95,0.00,,,0.01,13.000000,,2013-09-13 13:02:00,
2013-09-13 09:42:00,64.0,59.0,-100.00,North,354,6.0,14.0,85,0.00,,,0.01,177.000000,,2013-09-13 13:42:00,
2013-09-13 09:52:00,64.0,59.0,-100.00,North,354,6.0,14.0,85,0.00,,,0.01,177.000000,,2013-09-13 13:52:00,
2013-09-13 10:02:00,64.0,59.0,-100.00,North,354,6.0,14.0,85,0.00,,,0.01,177.000000,,2013-09-13 14:02:00,
2013-09-13 10:42:00,68.0,61.0,-100.00,NNW,347,4.0,13.0,77,0.00,,,0.01,497.000000,,2013-09-13 14:42:00,
2013-09-13 10:52:00,68.0,61.0,-100.00,NNW,347,4.0,13.0,77,0.00,,,0.01,497.000000,,2013-09-13 14:52:00,
2013-09-13 11:02:00,68.0,61.0,-100.00,NNW,347,4.0,13.0,77,0.00,,,0.01,497.000000,,2013-09-13 15:02:00,
2013-09-13 11:44:00,70.0,58.0,-100.00,North,349,5.0,12.0,66,0.00,,,0.01,742.000000,,2013-09-13 15:44:00,
2013-09-13 11:54:00,70.0,58.0,-100.00,North,349,5.0,12.0,66,0.00,,,0.01,742.000000,,2013-09-13 15:54:00,
2013-09-13 12:04:00,70.0,58.0,-100.00,North,349,5.0,12.0,66,0.00,,,0.01,742.000000,,2013-09-13 16:04:00,
2013-09-13 12:43:00,72.0,58.0,-100.00,NNW,345,5.0,12.0,61,0.00,,,0.01,925.000000,,2013-09-13 16:43:00,
2013-09-13 12:54:00,72.0,58.0,-100.00,NNW,345,5.0,12.0,61,0.00,,,0.01,925.000000,,2013-09-13 16:54:00,
2013-09-13 13:04:00,72.0,58.0,-100.00,NNW,345,5.0,12.0,61,0.00,,,0.01,925.000000,,2013-09-13 17:04:00,
2013-09-13 13:44:00,75.0,59.0,-100.00,NW,325,4.0,14.0,58,0.00,,,0.01,978.000000,,2013-09-13 17:44:00,
2013-09-13 13:53:00,75.0,59.0,-100.00,NW,325,4.0,14.0,58,0.00,,,0.01,978.000000,,2013-09-13 17:53:00,
2013-09-13 14:02:00,75.0,59.0,-100.00,NW,325,4.0,14.0,58,0.00,,,0.01,978.000000,,2013-09-13 18:02:00,
2013-09-13 14:42:00,74.0,58.0,-100.00,NW,321,5.0,12.0,57,0.00,,,0.00,896.000000,,2013-09-13 18:42:00,
2013-09-13 14:52:00,74.0,58.0,-100.00,NW,321,5.0,12.0,57,0.00,,,0.00,896.000000,,2013-09-13 18:52:00,
2013-09-13 15:02:00,74.0,58.0,-100.00,NW,321,5.0,12.0,57,0.00,,,0.00,896.000000,,2013-09-13 19:02:00,
2013-09-13 15:43:00,74.0,54.0,-100.00,NW,307,5.0,15.0,49,0.00,,,0.00,1014.000000,,2013-09-13 19:43:00,
2013-09-13 15:52:00,74.0,54.0,-100.00,NW,307,5.0,15.0,49,0.00,,,0.00,1014.000000,,2013-09-13 19:52:00,
2013-09-13 16:02:00,74.0,54.0,-100.00,NW,307,5.0,15.0,49,0.00,,,0.00,1014.000000,,2013-09-13 20:02:00,
2013-09-13 16:43:00,74.0,55.0,-100.00,NW,311,5.0,12.0,52,0.00,,,0.00,965.000000,,2013-09-13 20:43:00,
2013-09-13 16:52:00,74.0,55.0,-100.00,NW,311,5.0,12.0,52,0.00,,,0.00,965.000000,,2013-09-13 20:52:00,
2013-09-13 17:02:00,74.0,55.0,-100.00,NW,311,5.0,12.0,52,0.00,,,0.00,965.000000,,2013-09-13 21:02:00,
2013-09-13 17:44:00,72.0,54.0,-100.00,NNW,333,5.0,12.0,53,0.00,,,0.00,759.000000,,2013-09-13 21:44:00,
2013-09-13 17:54:00,72.0,54.0,-100.00,NNW,333,5.0,12.0,53,0.00,,,0.00,759.000000,,2013-09-13 21:54:00,
2013-09-13 18:04:00,72.0,54.0,-100.00,NNW,333,5.0,12.0,53,0.00,,,0.00,759.000000,,2013-09-13 22:04:00,
2013-09-13 18:43:00,68.0,55.0,-100.00,NNW,344,4.0,12.0,63,0.00,,,0.00,323.000000,,2013-09-13 22:43:00,
2013-09-13 18:54:00,68.0,55.0,-100.00,NNW,344,4.0,12.0,63,0.00,,,0.00,323.000000,,2013-09-13 22:54:00,
2013-09-13 19:03:00,68.0,55.0,-100.00,NNW,344,4.0,12.0,63,0.00,,,0.00,323.000000,,2013-09-13 23:03:00,
2013-09-13 19:43:00,65.0,53.0,-100.00,NNW,345,4.0,10.0,64,0.00,,,0.00,159.000000,,2013-09-13 23:43:00,
2013-09-13 19:53:00,65.0,53.0,-100.00,NNW,345,4.0,10.0,64,0.00,,,0.00,159.000000,,2013-09-13 23:53:00,
2013-09-13 20:01:00,65.0,53.0,-100.00,NNW,345,4.0,10.0,64,0.00,,,0.00,159.000000,,2013-09-14 00:01:00,
2013-09-13 20:42:00,60.0,48.0,-100.00,North,8,4.0,10.0,64,0.00,,,0.00,26.000000,,2013-09-14 00:42:00,
2013-09-13 20:53:00,60.0,48.0,-100.00,North,8,4.0,10.0,64,0.00,,,0.00,26.000000,,2013-09-14 00:53:00,
2013-09-13 21:02:00,60.0,48.0,-100.00,North,8,4.0,10.0,64,0.00,,,0.00,26.000000,,2013-09-14 01:02:00,
2013-09-13 21:42:00,58.0,50.0,-100.00,North,4,4.0,9.0,75,0.00,,,0.00,0.000000,,2013-09-14 01:42:00,
2013-09-13 21:52:00,58.0,50.0,-100.00,North,4,4.0,9.0,75,0.00,,,0.00,0.000000,,2013-09-14 01:52:00,
2013-09-13 22:02:00,58.0,50.0,-100.00,North,4,4.0,9.0,75,0.00,,,0.00,0.000000,,2013-09-14 02:02:00,
2013-09-13 22:42:00,57.0,50.0,-100.00,NNE,13,4.0,9.0,77,0.00,,,0.00,0.000000,,2013-09-14 02:42:00,
2013-09-13 22:52:00,57.0,50.0,-100.00,NNE,13,4.0,9.0,77,0.00,,,0.00,0.000000,,2013-09-14 02:52:00,
2013-09-13 23:02:00,57.0,50.0,-100.00,NNE,13,4.0,9.0,77,0.00,,,0.00,0.000000,,2013-09-14 03:02:00,
2013-09-13 23:45:00,55.0,49.0,-100.00,NNE,26,4.0,6.0,81,0.00,,,0.00,0.000000,,2013-09-14 03:45:00,
2013-09-13 23:55:00,55.0,49.0,-100.00,NNE,26,4.0,6.0,81,0.00,,,0.00,0.000000,,2013-09-14 03:55:00,